<?xml version="1.0" encoding="UTF-8" standalone="no" ?>
<gpx xmlns="http://www.topografix.com/GPX/1/1" xmlns:xsi="http://www.w3.org/2001/XMLSchema-instance" xsi:schemaLocation="http://www.topografix.com/GPX/1/1 http://www.topografix.com/GPX/1/1/gpx.xsd" version="1.1" creator="VisuGPX - https://www.visugpx.com">
  <metadata>
    <name>BOZAS ROLAND 28/10/2020</name>
  </metadata>
  <wpt lat="45.06184" lon="4.60066">
    <ele>861</ele>
    <name><![CDATA[Bifurcation ]]></name>
  </wpt>
  <wpt lat="45.06298" lon="4.60262">
    <ele>911</ele>
    <name><![CDATA[Rochefort]]></name>
  </wpt>
  <trk>
    <name><![CDATA[BOZAS ROLAND 28/10/2020]]></name>
    <trkseg>
      <trkpt lat="45.05718" lon="4.62607">
        <ele>564</ele>
        <time>2020-10-28T11:46:24+01:00</time>
      </trkpt>
      <trkpt lat="45.05712" lon="4.62575">
        <ele>563</ele>
        <time>2020-10-28T11:48:32+01:00</time>
      </trkpt>
      <trkpt lat="45.05693" lon="4.62556">
        <ele>566</ele>
        <time>2020-10-28T11:50:40+01:00</time>
      </trkpt>
      <trkpt lat="45.05678" lon="4.62532">
        <ele>568</ele>
        <time>2020-10-28T11:50:40+01:00</time>
      </trkpt>
      <trkpt lat="45.05671" lon="4.62502">
        <ele>567</ele>
        <time>2020-10-28T11:50:40+01:00</time>
      </trkpt>
      <trkpt lat="45.05659" lon="4.62473">
        <ele>570</ele>
        <time>2020-10-28T11:50:40+01:00</time>
      </trkpt>
      <trkpt lat="45.05639" lon="4.62455">
        <ele>575</ele>
        <time>2020-10-28T11:50:40+01:00</time>
      </trkpt>
      <trkpt lat="45.05619" lon="4.62437">
        <ele>580</ele>
        <time>2020-10-28T11:50:40+01:00</time>
      </trkpt>
      <trkpt lat="45.05607" lon="4.62409">
        <ele>584</ele>
        <time>2020-10-28T11:50:40+01:00</time>
      </trkpt>
      <trkpt lat="45.05611" lon="4.62377">
        <ele>586</ele>
        <time>2020-10-28T11:52:48+01:00</time>
      </trkpt>
      <trkpt lat="45.05626" lon="4.6235">
        <ele>585</ele>
        <time>2020-10-28T11:52:48+01:00</time>
      </trkpt>
      <trkpt lat="45.05631" lon="4.62318">
        <ele>587</ele>
        <time>2020-10-28T11:52:48+01:00</time>
      </trkpt>
      <trkpt lat="45.05634" lon="4.62286">
        <ele>590</ele>
        <time>2020-10-28T11:52:48+01:00</time>
      </trkpt>
      <trkpt lat="45.05639" lon="4.62253">
        <ele>592</ele>
        <time>2020-10-28T11:52:48+01:00</time>
      </trkpt>
      <trkpt lat="45.05647" lon="4.62221">
        <ele>591</ele>
        <time>2020-10-28T11:52:48+01:00</time>
      </trkpt>
      <trkpt lat="45.05653" lon="4.62191">
        <ele>590</ele>
        <time>2020-10-28T11:54:56+01:00</time>
      </trkpt>
      <trkpt lat="45.05649" lon="4.62159">
        <ele>592</ele>
        <time>2020-10-28T11:54:56+01:00</time>
      </trkpt>
      <trkpt lat="45.05647" lon="4.62127">
        <ele>593</ele>
        <time>2020-10-28T11:54:56+01:00</time>
      </trkpt>
      <trkpt lat="45.05633" lon="4.621">
        <ele>596</ele>
        <time>2020-10-28T11:54:56+01:00</time>
      </trkpt>
      <trkpt lat="45.05614" lon="4.62082">
        <ele>600</ele>
        <time>2020-10-28T11:54:56+01:00</time>
      </trkpt>
      <trkpt lat="45.05603" lon="4.62052">
        <ele>599</ele>
        <time>2020-10-28T11:54:56+01:00</time>
      </trkpt>
      <trkpt lat="45.05591" lon="4.62025">
        <ele>599</ele>
        <time>2020-10-28T11:57:04+01:00</time>
      </trkpt>
      <trkpt lat="45.05569" lon="4.62014">
        <ele>602</ele>
        <time>2020-10-28T11:57:04+01:00</time>
      </trkpt>
      <trkpt lat="45.05547" lon="4.62002">
        <ele>604</ele>
        <time>2020-10-28T11:57:04+01:00</time>
      </trkpt>
      <trkpt lat="45.05526" lon="4.61991">
        <ele>607</ele>
        <time>2020-10-28T11:57:04+01:00</time>
      </trkpt>
      <trkpt lat="45.05505" lon="4.61977">
        <ele>610</ele>
        <time>2020-10-28T11:57:04+01:00</time>
      </trkpt>
      <trkpt lat="45.05489" lon="4.61953">
        <ele>613</ele>
        <time>2020-10-28T11:57:04+01:00</time>
      </trkpt>
      <trkpt lat="45.05472" lon="4.61932">
        <ele>618</ele>
        <time>2020-10-28T11:57:04+01:00</time>
      </trkpt>
      <trkpt lat="45.05459" lon="4.61905">
        <ele>622</ele>
        <time>2020-10-28T11:59:12+01:00</time>
      </trkpt>
      <trkpt lat="45.05486" lon="4.61889">
        <ele>614</ele>
        <time>2020-10-28T11:59:12+01:00</time>
      </trkpt>
      <trkpt lat="45.05466" lon="4.61872">
        <ele>622</ele>
        <time>2020-10-28T11:59:12+01:00</time>
      </trkpt>
      <trkpt lat="45.05475" lon="4.61841">
        <ele>621</ele>
        <time>2020-10-28T11:59:12+01:00</time>
      </trkpt>
      <trkpt lat="45.05459" lon="4.61819">
        <ele>627</ele>
        <time>2020-10-28T11:59:12+01:00</time>
      </trkpt>
      <trkpt lat="45.05471" lon="4.61791">
        <ele>621</ele>
        <time>2020-10-28T11:59:12+01:00</time>
      </trkpt>
      <trkpt lat="45.05492" lon="4.61801">
        <ele>613</ele>
        <time>2020-10-28T12:01:20+01:00</time>
      </trkpt>
      <trkpt lat="45.05471" lon="4.6179">
        <ele>621</ele>
        <time>2020-10-28T12:01:20+01:00</time>
      </trkpt>
      <trkpt lat="45.0545" lon="4.61802">
        <ele>630</ele>
        <time>2020-10-28T12:01:20+01:00</time>
      </trkpt>
      <trkpt lat="45.05432" lon="4.61782">
        <ele>637</ele>
        <time>2020-10-28T12:03:28+01:00</time>
      </trkpt>
      <trkpt lat="45.0542" lon="4.61754">
        <ele>642</ele>
        <time>2020-10-28T12:03:28+01:00</time>
      </trkpt>
      <trkpt lat="45.05402" lon="4.61734">
        <ele>648</ele>
        <time>2020-10-28T12:03:28+01:00</time>
      </trkpt>
      <trkpt lat="45.05394" lon="4.61703">
        <ele>650</ele>
        <time>2020-10-28T12:03:28+01:00</time>
      </trkpt>
      <trkpt lat="45.05382" lon="4.61676">
        <ele>655</ele>
        <time>2020-10-28T12:05:36+01:00</time>
      </trkpt>
      <trkpt lat="45.05388" lon="4.61646">
        <ele>652</ele>
        <time>2020-10-28T12:05:36+01:00</time>
      </trkpt>
      <trkpt lat="45.05392" lon="4.61613">
        <ele>651</ele>
        <time>2020-10-28T12:05:36+01:00</time>
      </trkpt>
      <trkpt lat="45.05394" lon="4.6158">
        <ele>649</ele>
        <time>2020-10-28T12:05:36+01:00</time>
      </trkpt>
      <trkpt lat="45.05391" lon="4.61548">
        <ele>651</ele>
        <time>2020-10-28T12:05:36+01:00</time>
      </trkpt>
      <trkpt lat="45.05391" lon="4.61516">
        <ele>651</ele>
        <time>2020-10-28T12:07:44+01:00</time>
      </trkpt>
      <trkpt lat="45.05382" lon="4.61487">
        <ele>654</ele>
        <time>2020-10-28T12:07:44+01:00</time>
      </trkpt>
      <trkpt lat="45.05371" lon="4.61459">
        <ele>656</ele>
        <time>2020-10-28T12:07:44+01:00</time>
      </trkpt>
      <trkpt lat="45.0535" lon="4.61447">
        <ele>663</ele>
        <time>2020-10-28T12:07:44+01:00</time>
      </trkpt>
      <trkpt lat="45.0533" lon="4.6143">
        <ele>668</ele>
        <time>2020-10-28T12:09:52+01:00</time>
      </trkpt>
      <trkpt lat="45.05306" lon="4.61426">
        <ele>675</ele>
        <time>2020-10-28T12:09:52+01:00</time>
      </trkpt>
      <trkpt lat="45.05287" lon="4.6145">
        <ele>683</ele>
        <time>2020-10-28T12:09:52+01:00</time>
      </trkpt>
      <trkpt lat="45.05294" lon="4.61418">
        <ele>677</ele>
        <time>2020-10-28T12:09:52+01:00</time>
      </trkpt>
      <trkpt lat="45.05271" lon="4.61408">
        <ele>685</ele>
        <time>2020-10-28T12:09:52+01:00</time>
      </trkpt>
      <trkpt lat="45.05279" lon="4.61378">
        <ele>683</ele>
        <time>2020-10-28T12:09:52+01:00</time>
      </trkpt>
      <trkpt lat="45.05286" lon="4.61347">
        <ele>681</ele>
        <time>2020-10-28T12:14:08+01:00</time>
      </trkpt>
      <trkpt lat="45.0528" lon="4.61316">
        <ele>683</ele>
        <time>2020-10-28T12:14:08+01:00</time>
      </trkpt>
      <trkpt lat="45.05271" lon="4.61286">
        <ele>684</ele>
        <time>2020-10-28T12:14:08+01:00</time>
      </trkpt>
      <trkpt lat="45.0527" lon="4.61254">
        <ele>683</ele>
        <time>2020-10-28T12:14:08+01:00</time>
      </trkpt>
      <trkpt lat="45.05259" lon="4.61225">
        <ele>683</ele>
        <time>2020-10-28T12:14:08+01:00</time>
      </trkpt>
      <trkpt lat="45.05241" lon="4.61206">
        <ele>687</ele>
        <time>2020-10-28T12:16:16+01:00</time>
      </trkpt>
      <trkpt lat="45.0525" lon="4.61176">
        <ele>681</ele>
        <time>2020-10-28T12:16:16+01:00</time>
      </trkpt>
      <trkpt lat="45.05243" lon="4.61145">
        <ele>682</ele>
        <time>2020-10-28T12:16:16+01:00</time>
      </trkpt>
      <trkpt lat="45.05223" lon="4.61127">
        <ele>689</ele>
        <time>2020-10-28T12:16:16+01:00</time>
      </trkpt>
      <trkpt lat="45.05206" lon="4.61105">
        <ele>694</ele>
        <time>2020-10-28T12:18:24+01:00</time>
      </trkpt>
      <trkpt lat="45.05189" lon="4.61126">
        <ele>700</ele>
        <time>2020-10-28T12:18:24+01:00</time>
      </trkpt>
      <trkpt lat="45.05198" lon="4.61155">
        <ele>697</ele>
        <time>2020-10-28T12:20:32+01:00</time>
      </trkpt>
      <trkpt lat="45.05183" lon="4.6113">
        <ele>702</ele>
        <time>2020-10-28T12:20:32+01:00</time>
      </trkpt>
      <trkpt lat="45.05186" lon="4.61098">
        <ele>700</ele>
        <time>2020-10-28T12:20:32+01:00</time>
      </trkpt>
      <trkpt lat="45.05191" lon="4.61067">
        <ele>700</ele>
        <time>2020-10-28T12:20:32+01:00</time>
      </trkpt>
      <trkpt lat="45.05169" lon="4.61053">
        <ele>707</ele>
        <time>2020-10-28T12:22:40+01:00</time>
      </trkpt>
      <trkpt lat="45.05147" lon="4.61048">
        <ele>716</ele>
        <time>2020-10-28T12:22:40+01:00</time>
      </trkpt>
      <trkpt lat="45.05144" lon="4.61016">
        <ele>718</ele>
        <time>2020-10-28T12:22:40+01:00</time>
      </trkpt>
      <trkpt lat="45.05163" lon="4.60997">
        <ele>712</ele>
        <time>2020-10-28T12:22:40+01:00</time>
      </trkpt>
      <trkpt lat="45.05181" lon="4.60976">
        <ele>709</ele>
        <time>2020-10-28T12:22:40+01:00</time>
      </trkpt>
      <trkpt lat="45.052" lon="4.60959">
        <ele>705</ele>
        <time>2020-10-28T12:24:48+01:00</time>
      </trkpt>
      <trkpt lat="45.05216" lon="4.60935">
        <ele>704</ele>
        <time>2020-10-28T12:24:48+01:00</time>
      </trkpt>
      <trkpt lat="45.05205" lon="4.60907">
        <ele>708</ele>
        <time>2020-10-28T12:24:48+01:00</time>
      </trkpt>
      <trkpt lat="45.05211" lon="4.60875">
        <ele>712</ele>
        <time>2020-10-28T12:24:48+01:00</time>
      </trkpt>
      <trkpt lat="45.05218" lon="4.60844">
        <ele>715</ele>
        <time>2020-10-28T12:26:56+01:00</time>
      </trkpt>
      <trkpt lat="45.05241" lon="4.60849">
        <ele>713</ele>
        <time>2020-10-28T12:26:56+01:00</time>
      </trkpt>
      <trkpt lat="45.05265" lon="4.60842">
        <ele>714</ele>
        <time>2020-10-28T12:29:04+01:00</time>
      </trkpt>
      <trkpt lat="45.05285" lon="4.60825">
        <ele>719</ele>
        <time>2020-10-28T12:29:04+01:00</time>
      </trkpt>
      <trkpt lat="45.05264" lon="4.60811">
        <ele>723</ele>
        <time>2020-10-28T12:29:04+01:00</time>
      </trkpt>
      <trkpt lat="45.05242" lon="4.60799">
        <ele>726</ele>
        <time>2020-10-28T12:31:12+01:00</time>
      </trkpt>
      <trkpt lat="45.05223" lon="4.60782">
        <ele>730</ele>
        <time>2020-10-28T12:31:12+01:00</time>
      </trkpt>
      <trkpt lat="45.052" lon="4.60771">
        <ele>731</ele>
        <time>2020-10-28T12:31:12+01:00</time>
      </trkpt>
      <trkpt lat="45.05222" lon="4.60763">
        <ele>735</ele>
        <time>2020-10-28T12:33:20+01:00</time>
      </trkpt>
      <trkpt lat="45.0524" lon="4.60783">
        <ele>730</ele>
        <time>2020-10-28T12:33:20+01:00</time>
      </trkpt>
      <trkpt lat="45.05258" lon="4.60804">
        <ele>725</ele>
        <time>2020-10-28T12:33:20+01:00</time>
      </trkpt>
      <trkpt lat="45.0528" lon="4.60804">
        <ele>726</ele>
        <time>2020-10-28T12:33:20+01:00</time>
      </trkpt>
      <trkpt lat="45.05304" lon="4.60805">
        <ele>727</ele>
        <time>2020-10-28T12:33:20+01:00</time>
      </trkpt>
      <trkpt lat="45.05327" lon="4.60794">
        <ele>732</ele>
        <time>2020-10-28T12:35:28+01:00</time>
      </trkpt>
      <trkpt lat="45.05351" lon="4.60794">
        <ele>730</ele>
        <time>2020-10-28T12:35:28+01:00</time>
      </trkpt>
      <trkpt lat="45.05377" lon="4.6079">
        <ele>727</ele>
        <time>2020-10-28T12:37:36+01:00</time>
      </trkpt>
      <trkpt lat="45.05401" lon="4.60789">
        <ele>724</ele>
        <time>2020-10-28T12:37:36+01:00</time>
      </trkpt>
      <trkpt lat="45.05428" lon="4.6078">
        <ele>719</ele>
        <time>2020-10-28T12:37:36+01:00</time>
      </trkpt>
      <trkpt lat="45.05435" lon="4.6075">
        <ele>722</ele>
        <time>2020-10-28T12:37:36+01:00</time>
      </trkpt>
      <trkpt lat="45.0544" lon="4.60718">
        <ele>726</ele>
        <time>2020-10-28T12:37:36+01:00</time>
      </trkpt>
      <trkpt lat="45.0545" lon="4.60687">
        <ele>729</ele>
        <time>2020-10-28T12:37:36+01:00</time>
      </trkpt>
      <trkpt lat="45.0547" lon="4.60668">
        <ele>725</ele>
        <time>2020-10-28T12:37:36+01:00</time>
      </trkpt>
      <trkpt lat="45.05479" lon="4.60639">
        <ele>727</ele>
        <time>2020-10-28T12:39:44+01:00</time>
      </trkpt>
      <trkpt lat="45.05494" lon="4.60614">
        <ele>727</ele>
        <time>2020-10-28T12:39:44+01:00</time>
      </trkpt>
      <trkpt lat="45.05515" lon="4.606">
        <ele>723</ele>
        <time>2020-10-28T12:39:44+01:00</time>
      </trkpt>
      <trkpt lat="45.05534" lon="4.60584">
        <ele>721</ele>
        <time>2020-10-28T12:39:44+01:00</time>
      </trkpt>
      <trkpt lat="45.05546" lon="4.60556">
        <ele>724</ele>
        <time>2020-10-28T12:39:44+01:00</time>
      </trkpt>
      <trkpt lat="45.05568" lon="4.60544">
        <ele>720</ele>
        <time>2020-10-28T12:39:44+01:00</time>
      </trkpt>
      <trkpt lat="45.05581" lon="4.60517">
        <ele>722</ele>
        <time>2020-10-28T12:39:44+01:00</time>
      </trkpt>
      <trkpt lat="45.05566" lon="4.60488">
        <ele>733</ele>
        <time>2020-10-28T12:41:52+01:00</time>
      </trkpt>
      <trkpt lat="45.05589" lon="4.60477">
        <ele>729</ele>
        <time>2020-10-28T12:41:52+01:00</time>
      </trkpt>
      <trkpt lat="45.05586" lon="4.60446">
        <ele>737</ele>
        <time>2020-10-28T12:41:52+01:00</time>
      </trkpt>
      <trkpt lat="45.05606" lon="4.60428">
        <ele>737</ele>
        <time>2020-10-28T12:41:52+01:00</time>
      </trkpt>
      <trkpt lat="45.0562" lon="4.60404">
        <ele>741</ele>
        <time>2020-10-28T12:41:52+01:00</time>
      </trkpt>
      <trkpt lat="45.05645" lon="4.60391">
        <ele>740</ele>
        <time>2020-10-28T12:41:52+01:00</time>
      </trkpt>
      <trkpt lat="45.05666" lon="4.60378">
        <ele>739</ele>
        <time>2020-10-28T12:41:52+01:00</time>
      </trkpt>
      <trkpt lat="45.05691" lon="4.60377">
        <ele>736</ele>
        <time>2020-10-28T12:44:00+01:00</time>
      </trkpt>
      <trkpt lat="45.05711" lon="4.60358">
        <ele>739</ele>
        <time>2020-10-28T12:44:00+01:00</time>
      </trkpt>
      <trkpt lat="45.05736" lon="4.60349">
        <ele>737</ele>
        <time>2020-10-28T12:44:00+01:00</time>
      </trkpt>
      <trkpt lat="45.05755" lon="4.60332">
        <ele>738</ele>
        <time>2020-10-28T12:44:00+01:00</time>
      </trkpt>
      <trkpt lat="45.05778" lon="4.60339">
        <ele>734</ele>
        <time>2020-10-28T12:44:00+01:00</time>
      </trkpt>
      <trkpt lat="45.05801" lon="4.60332">
        <ele>733</ele>
        <time>2020-10-28T12:44:00+01:00</time>
      </trkpt>
      <trkpt lat="45.05822" lon="4.60321">
        <ele>732</ele>
        <time>2020-10-28T12:46:08+01:00</time>
      </trkpt>
      <trkpt lat="45.05845" lon="4.60329">
        <ele>732</ele>
        <time>2020-10-28T12:46:08+01:00</time>
      </trkpt>
      <trkpt lat="45.05868" lon="4.60322">
        <ele>736</ele>
        <time>2020-10-28T12:46:08+01:00</time>
      </trkpt>
      <trkpt lat="45.05866" lon="4.60287">
        <ele>740</ele>
        <time>2020-10-28T12:46:08+01:00</time>
      </trkpt>
      <trkpt lat="45.05832" lon="4.60398">
        <ele>724</ele>
        <time>2020-10-28T12:48:16+01:00</time>
      </trkpt>
      <trkpt lat="45.05866" lon="4.60422">
        <ele>730</ele>
        <time>2020-10-28T12:48:16+01:00</time>
      </trkpt>
      <trkpt lat="45.05903" lon="4.60444">
        <ele>739</ele>
        <time>2020-10-28T12:48:16+01:00</time>
      </trkpt>
      <trkpt lat="45.05925" lon="4.60459">
        <ele>745</ele>
        <time>2020-10-28T12:48:16+01:00</time>
      </trkpt>
      <trkpt lat="45.05937" lon="4.60485">
        <ele>749</ele>
        <time>2020-10-28T12:48:16+01:00</time>
      </trkpt>
      <trkpt lat="45.05953" lon="4.60509">
        <ele>753</ele>
        <time>2020-10-28T12:50:24+01:00</time>
      </trkpt>
      <trkpt lat="45.05975" lon="4.6052">
        <ele>758</ele>
        <time>2020-10-28T12:50:24+01:00</time>
      </trkpt>
      <trkpt lat="45.05985" lon="4.60548">
        <ele>758</ele>
        <time>2020-10-28T12:50:24+01:00</time>
      </trkpt>
      <trkpt lat="45.06002" lon="4.60527">
        <ele>765</ele>
        <time>2020-10-28T12:50:24+01:00</time>
      </trkpt>
      <trkpt lat="45.06001" lon="4.60494">
        <ele>768</ele>
        <time>2020-10-28T12:52:32+01:00</time>
      </trkpt>
      <trkpt lat="45.06" lon="4.60462">
        <ele>768</ele>
        <time>2020-10-28T12:52:32+01:00</time>
      </trkpt>
      <trkpt lat="45.06" lon="4.6043">
        <ele>770</ele>
        <time>2020-10-28T12:52:32+01:00</time>
      </trkpt>
      <trkpt lat="45.06009" lon="4.60399">
        <ele>774</ele>
        <time>2020-10-28T12:52:32+01:00</time>
      </trkpt>
      <trkpt lat="45.06001" lon="4.60367">
        <ele>773</ele>
        <time>2020-10-28T12:54:40+01:00</time>
      </trkpt>
      <trkpt lat="45.06019" lon="4.60345">
        <ele>781</ele>
        <time>2020-10-28T12:54:40+01:00</time>
      </trkpt>
      <trkpt lat="45.06022" lon="4.60312">
        <ele>785</ele>
        <time>2020-10-28T12:54:40+01:00</time>
      </trkpt>
      <trkpt lat="45.06044" lon="4.6031">
        <ele>794</ele>
        <time>2020-10-28T12:56:48+01:00</time>
      </trkpt>
      <trkpt lat="45.06053" lon="4.60281">
        <ele>800</ele>
        <time>2020-10-28T12:56:48+01:00</time>
      </trkpt>
      <trkpt lat="45.06053" lon="4.60249">
        <ele>802</ele>
        <time>2020-10-28T12:56:48+01:00</time>
      </trkpt>
      <trkpt lat="45.06056" lon="4.60216">
        <ele>804</ele>
        <time>2020-10-28T12:58:56+01:00</time>
      </trkpt>
      <trkpt lat="45.06066" lon="4.60187">
        <ele>808</ele>
        <time>2020-10-28T12:58:56+01:00</time>
      </trkpt>
      <trkpt lat="45.06088" lon="4.60172">
        <ele>817</ele>
        <time>2020-10-28T12:58:56+01:00</time>
      </trkpt>
      <trkpt lat="45.06102" lon="4.60147">
        <ele>824</ele>
        <time>2020-10-28T12:58:56+01:00</time>
      </trkpt>
      <trkpt lat="45.06103" lon="4.60111">
        <ele>825</ele>
        <time>2020-10-28T13:01:04+01:00</time>
      </trkpt>
      <trkpt lat="45.06096" lon="4.60081">
        <ele>823</ele>
        <time>2020-10-28T13:01:04+01:00</time>
      </trkpt>
      <trkpt lat="45.0609" lon="4.60049">
        <ele>825</ele>
        <time>2020-10-28T13:01:04+01:00</time>
      </trkpt>
      <trkpt lat="45.06088" lon="4.60018">
        <ele>828</ele>
        <time>2020-10-28T13:01:04+01:00</time>
      </trkpt>
      <trkpt lat="45.06089" lon="4.59985">
        <ele>834</ele>
        <time>2020-10-28T13:03:12+01:00</time>
      </trkpt>
      <trkpt lat="45.06083" lon="4.59954">
        <ele>838</ele>
        <time>2020-10-28T13:03:12+01:00</time>
      </trkpt>
      <trkpt lat="45.06082" lon="4.59922">
        <ele>844</ele>
        <time>2020-10-28T13:03:12+01:00</time>
      </trkpt>
      <trkpt lat="45.0608" lon="4.59888">
        <ele>848</ele>
        <time>2020-10-28T13:05:20+01:00</time>
      </trkpt>
      <trkpt lat="45.06078" lon="4.59856">
        <ele>853</ele>
        <time>2020-10-28T13:05:20+01:00</time>
      </trkpt>
      <trkpt lat="45.06095" lon="4.59878">
        <ele>853</ele>
        <time>2020-10-28T13:09:36+01:00</time>
      </trkpt>
      <trkpt lat="45.06114" lon="4.59898">
        <ele>855</ele>
        <time>2020-10-28T13:09:36+01:00</time>
      </trkpt>
      <trkpt lat="45.06125" lon="4.59928">
        <ele>855</ele>
        <time>2020-10-28T13:09:36+01:00</time>
      </trkpt>
      <trkpt lat="45.06138" lon="4.59956">
        <ele>855</ele>
        <time>2020-10-28T13:13:52+01:00</time>
      </trkpt>
      <trkpt lat="45.06159" lon="4.59975">
        <ele>860</ele>
        <time>2020-10-28T13:13:52+01:00</time>
      </trkpt>
      <trkpt lat="45.06175" lon="4.59945">
        <ele>868</ele>
        <time>2020-10-28T13:13:52+01:00</time>
      </trkpt>
      <trkpt lat="45.06196" lon="4.59918">
        <ele>875</ele>
        <time>2020-10-28T13:13:52+01:00</time>
      </trkpt>
      <trkpt lat="45.06191" lon="4.59951">
        <ele>872</ele>
        <time>2020-10-28T13:13:52+01:00</time>
      </trkpt>
      <trkpt lat="45.06176" lon="4.5998">
        <ele>866</ele>
        <time>2020-10-28T13:13:52+01:00</time>
      </trkpt>
      <trkpt lat="45.06182" lon="4.60011">
        <ele>865</ele>
        <time>2020-10-28T13:13:52+01:00</time>
      </trkpt>
      <trkpt lat="45.06196" lon="4.60038">
        <ele>868</ele>
        <time>2020-10-28T13:13:52+01:00</time>
      </trkpt>
      <trkpt lat="45.06184" lon="4.60066">
        <ele>861</ele>
        <time>2020-10-28T13:16:00+01:00</time>
      </trkpt>
      <trkpt lat="45.06205" lon="4.60079">
        <ele>868</ele>
        <time>2020-10-28T13:16:00+01:00</time>
      </trkpt>
      <trkpt lat="45.06227" lon="4.60085">
        <ele>877</ele>
        <time>2020-10-28T13:16:00+01:00</time>
      </trkpt>
      <trkpt lat="45.06204" lon="4.60095">
        <ele>868</ele>
        <time>2020-10-28T13:16:00+01:00</time>
      </trkpt>
      <trkpt lat="45.0621" lon="4.60149">
        <ele>872</ele>
        <time>2020-10-28T13:18:08+01:00</time>
      </trkpt>
      <trkpt lat="45.06178" lon="4.60187">
        <ele>859</ele>
        <time>2020-10-28T13:18:08+01:00</time>
      </trkpt>
      <trkpt lat="45.06199" lon="4.60172">
        <ele>868</ele>
        <time>2020-10-28T13:20:16+01:00</time>
      </trkpt>
      <trkpt lat="45.0622" lon="4.60158">
        <ele>878</ele>
        <time>2020-10-28T13:20:16+01:00</time>
      </trkpt>
      <trkpt lat="45.0624" lon="4.60182">
        <ele>889</ele>
        <time>2020-10-28T13:20:16+01:00</time>
      </trkpt>
      <trkpt lat="45.06232" lon="4.60237">
        <ele>890</ele>
        <time>2020-10-28T13:20:16+01:00</time>
      </trkpt>
      <trkpt lat="45.06236" lon="4.60159">
        <ele>886</ele>
        <time>2020-10-28T13:20:16+01:00</time>
      </trkpt>
      <trkpt lat="45.06233" lon="4.6019">
        <ele>886</ele>
        <time>2020-10-28T13:22:24+01:00</time>
      </trkpt>
      <trkpt lat="45.06245" lon="4.60218">
        <ele>895</ele>
        <time>2020-10-28T13:22:24+01:00</time>
      </trkpt>
      <trkpt lat="45.06264" lon="4.60239">
        <ele>903</ele>
        <time>2020-10-28T13:24:32+01:00</time>
      </trkpt>
      <trkpt lat="45.06289" lon="4.60235">
        <ele>909</ele>
        <time>2020-10-28T13:26:40+01:00</time>
      </trkpt>
      <trkpt lat="45.06316" lon="4.60232">
        <ele>916</ele>
        <time>2020-10-28T13:26:40+01:00</time>
      </trkpt>
      <trkpt lat="45.06298" lon="4.60262">
        <ele>911</ele>
        <time>2020-10-28T13:28:48+01:00</time>
      </trkpt>
      <trkpt lat="45.06315" lon="4.60238">
        <ele>916</ele>
        <time>2020-10-28T13:28:48+01:00</time>
      </trkpt>
      <trkpt lat="45.06335" lon="4.60263">
        <ele>919</ele>
        <time>2020-10-28T13:28:48+01:00</time>
      </trkpt>
      <trkpt lat="45.06316" lon="4.60289">
        <ele>912</ele>
        <time>2020-10-28T13:30:56+01:00</time>
      </trkpt>
      <trkpt lat="45.06334" lon="4.60309">
        <ele>914</ele>
        <time>2020-10-28T13:33:04+01:00</time>
      </trkpt>
      <trkpt lat="45.06323" lon="4.60339">
        <ele>908</ele>
        <time>2020-10-28T13:43:44+01:00</time>
      </trkpt>
      <trkpt lat="45.06308" lon="4.60316">
        <ele>907</ele>
        <time>2020-10-28T13:43:44+01:00</time>
      </trkpt>
      <trkpt lat="45.06343" lon="4.6033">
        <ele>908</ele>
        <time>2020-10-28T13:43:44+01:00</time>
      </trkpt>
      <trkpt lat="45.06319" lon="4.60328">
        <ele>908</ele>
        <time>2020-10-28T13:45:52+01:00</time>
      </trkpt>
      <trkpt lat="45.06294" lon="4.60323">
        <ele>903</ele>
        <time>2020-10-28T13:45:52+01:00</time>
      </trkpt>
      <trkpt lat="45.06267" lon="4.60343">
        <ele>893</ele>
        <time>2020-10-28T13:48:00+01:00</time>
      </trkpt>
      <trkpt lat="45.06249" lon="4.60364">
        <ele>885</ele>
        <time>2020-10-28T13:48:00+01:00</time>
      </trkpt>
      <trkpt lat="45.06349" lon="4.60308">
        <ele>908</ele>
        <time>2020-10-28T13:52:16+01:00</time>
      </trkpt>
      <trkpt lat="45.06333" lon="4.60345">
        <ele>909</ele>
        <time>2020-10-28T13:52:16+01:00</time>
      </trkpt>
      <trkpt lat="45.06312" lon="4.60333">
        <ele>906</ele>
        <time>2020-10-28T13:56:32+01:00</time>
      </trkpt>
      <trkpt lat="45.0633" lon="4.60311">
        <ele>913</ele>
        <time>2020-10-28T14:09:20+01:00</time>
      </trkpt>
      <trkpt lat="45.06329" lon="4.60273">
        <ele>917</ele>
        <time>2020-10-28T14:11:28+01:00</time>
      </trkpt>
      <trkpt lat="45.06322" lon="4.60242">
        <ele>918</ele>
        <time>2020-10-28T14:13:36+01:00</time>
      </trkpt>
      <trkpt lat="45.06302" lon="4.60225">
        <ele>912</ele>
        <time>2020-10-28T14:15:44+01:00</time>
      </trkpt>
      <trkpt lat="45.0628" lon="4.60233">
        <ele>907</ele>
        <time>2020-10-28T14:15:44+01:00</time>
      </trkpt>
      <trkpt lat="45.06257" lon="4.60233">
        <ele>901</ele>
        <time>2020-10-28T14:15:44+01:00</time>
      </trkpt>
      <trkpt lat="45.06247" lon="4.60204">
        <ele>894</ele>
        <time>2020-10-28T14:17:52+01:00</time>
      </trkpt>
      <trkpt lat="45.06235" lon="4.60163">
        <ele>885</ele>
        <time>2020-10-28T14:20:00+01:00</time>
      </trkpt>
      <trkpt lat="45.06223" lon="4.60134">
        <ele>878</ele>
        <time>2020-10-28T14:20:00+01:00</time>
      </trkpt>
      <trkpt lat="45.06198" lon="4.60114">
        <ele>866</ele>
        <time>2020-10-28T14:20:00+01:00</time>
      </trkpt>
      <trkpt lat="45.0619" lon="4.60076">
        <ele>862</ele>
        <time>2020-10-28T14:22:08+01:00</time>
      </trkpt>
      <trkpt lat="45.06166" lon="4.60084">
        <ele>852</ele>
        <time>2020-10-28T14:22:08+01:00</time>
      </trkpt>
      <trkpt lat="45.06141" lon="4.60074">
        <ele>842</ele>
        <time>2020-10-28T14:22:08+01:00</time>
      </trkpt>
      <trkpt lat="45.06166" lon="4.60045">
        <ele>856</ele>
        <time>2020-10-28T14:22:08+01:00</time>
      </trkpt>
      <trkpt lat="45.06188" lon="4.60038">
        <ele>865</ele>
        <time>2020-10-28T14:22:08+01:00</time>
      </trkpt>
      <trkpt lat="45.06172" lon="4.60009">
        <ele>862</ele>
        <time>2020-10-28T14:22:08+01:00</time>
      </trkpt>
      <trkpt lat="45.06152" lon="4.59992">
        <ele>856</ele>
        <time>2020-10-28T14:24:16+01:00</time>
      </trkpt>
      <trkpt lat="45.06124" lon="4.59996">
        <ele>845</ele>
        <time>2020-10-28T14:24:16+01:00</time>
      </trkpt>
      <trkpt lat="45.06139" lon="4.59963">
        <ele>855</ele>
        <time>2020-10-28T14:24:16+01:00</time>
      </trkpt>
      <trkpt lat="45.0612" lon="4.59931">
        <ele>853</ele>
        <time>2020-10-28T14:24:16+01:00</time>
      </trkpt>
      <trkpt lat="45.06109" lon="4.59899">
        <ele>853</ele>
        <time>2020-10-28T14:24:16+01:00</time>
      </trkpt>
      <trkpt lat="45.06086" lon="4.59893">
        <ele>849</ele>
        <time>2020-10-28T14:26:24+01:00</time>
      </trkpt>
      <trkpt lat="45.06068" lon="4.59873">
        <ele>849</ele>
        <time>2020-10-28T14:26:24+01:00</time>
      </trkpt>
      <trkpt lat="45.06043" lon="4.59865">
        <ele>849</ele>
        <time>2020-10-28T14:28:32+01:00</time>
      </trkpt>
      <trkpt lat="45.0602" lon="4.59873">
        <ele>845</ele>
        <time>2020-10-28T14:28:32+01:00</time>
      </trkpt>
      <trkpt lat="45.06002" lon="4.59894">
        <ele>837</ele>
        <time>2020-10-28T14:28:32+01:00</time>
      </trkpt>
      <trkpt lat="45.05974" lon="4.599">
        <ele>836</ele>
        <time>2020-10-28T14:28:32+01:00</time>
      </trkpt>
      <trkpt lat="45.05954" lon="4.59916">
        <ele>832</ele>
        <time>2020-10-28T14:28:32+01:00</time>
      </trkpt>
      <trkpt lat="45.05933" lon="4.59934">
        <ele>827</ele>
        <time>2020-10-28T14:30:40+01:00</time>
      </trkpt>
      <trkpt lat="45.05912" lon="4.59949">
        <ele>824</ele>
        <time>2020-10-28T14:30:40+01:00</time>
      </trkpt>
      <trkpt lat="45.05885" lon="4.59962">
        <ele>822</ele>
        <time>2020-10-28T14:30:40+01:00</time>
      </trkpt>
      <trkpt lat="45.05859" lon="4.59973">
        <ele>822</ele>
        <time>2020-10-28T14:30:40+01:00</time>
      </trkpt>
      <trkpt lat="45.05837" lon="4.59986">
        <ele>821</ele>
        <time>2020-10-28T14:32:48+01:00</time>
      </trkpt>
      <trkpt lat="45.05818" lon="4.60006">
        <ele>820</ele>
        <time>2020-10-28T14:32:48+01:00</time>
      </trkpt>
      <trkpt lat="45.05798" lon="4.60032">
        <ele>817</ele>
        <time>2020-10-28T14:32:48+01:00</time>
      </trkpt>
      <trkpt lat="45.05779" lon="4.60048">
        <ele>818</ele>
        <time>2020-10-28T14:32:48+01:00</time>
      </trkpt>
      <trkpt lat="45.05759" lon="4.60064">
        <ele>820</ele>
        <time>2020-10-28T14:32:48+01:00</time>
      </trkpt>
      <trkpt lat="45.05735" lon="4.60081">
        <ele>821</ele>
        <time>2020-10-28T14:34:56+01:00</time>
      </trkpt>
      <trkpt lat="45.05714" lon="4.60101">
        <ele>818</ele>
        <time>2020-10-28T14:34:56+01:00</time>
      </trkpt>
      <trkpt lat="45.05685" lon="4.60114">
        <ele>819</ele>
        <time>2020-10-28T14:34:56+01:00</time>
      </trkpt>
      <trkpt lat="45.05662" lon="4.60138">
        <ele>816</ele>
        <time>2020-10-28T14:34:56+01:00</time>
      </trkpt>
      <trkpt lat="45.0565" lon="4.60166">
        <ele>809</ele>
        <time>2020-10-28T14:34:56+01:00</time>
      </trkpt>
      <trkpt lat="45.05648" lon="4.60199">
        <ele>799</ele>
        <time>2020-10-28T14:37:04+01:00</time>
      </trkpt>
      <trkpt lat="45.0562" lon="4.60214">
        <ele>800</ele>
        <time>2020-10-28T14:39:12+01:00</time>
      </trkpt>
      <trkpt lat="45.05598" lon="4.60225">
        <ele>801</ele>
        <time>2020-10-28T14:41:20+01:00</time>
      </trkpt>
      <trkpt lat="45.05576" lon="4.60231">
        <ele>803</ele>
        <time>2020-10-28T14:41:20+01:00</time>
      </trkpt>
      <trkpt lat="45.05555" lon="4.60243">
        <ele>804</ele>
        <time>2020-10-28T14:41:20+01:00</time>
      </trkpt>
      <trkpt lat="45.05533" lon="4.6026">
        <ele>804</ele>
        <time>2020-10-28T14:41:20+01:00</time>
      </trkpt>
      <trkpt lat="45.0551" lon="4.6027">
        <ele>806</ele>
        <time>2020-10-28T14:41:20+01:00</time>
      </trkpt>
      <trkpt lat="45.05487" lon="4.60294">
        <ele>808</ele>
        <time>2020-10-28T14:41:20+01:00</time>
      </trkpt>
      <trkpt lat="45.05477" lon="4.60322">
        <ele>806</ele>
        <time>2020-10-28T14:45:36+01:00</time>
      </trkpt>
      <trkpt lat="45.05459" lon="4.60343">
        <ele>808</ele>
        <time>2020-10-28T14:45:36+01:00</time>
      </trkpt>
      <trkpt lat="45.05446" lon="4.6037">
        <ele>807</ele>
        <time>2020-10-28T14:45:36+01:00</time>
      </trkpt>
      <trkpt lat="45.05439" lon="4.60401">
        <ele>801</ele>
        <time>2020-10-28T14:45:36+01:00</time>
      </trkpt>
      <trkpt lat="45.05422" lon="4.60424">
        <ele>802</ele>
        <time>2020-10-28T14:45:36+01:00</time>
      </trkpt>
      <trkpt lat="45.054" lon="4.60438">
        <ele>805</ele>
        <time>2020-10-28T14:47:44+01:00</time>
      </trkpt>
      <trkpt lat="45.05378" lon="4.60437">
        <ele>811</ele>
        <time>2020-10-28T14:47:44+01:00</time>
      </trkpt>
      <trkpt lat="45.05359" lon="4.60455">
        <ele>811</ele>
        <time>2020-10-28T14:47:44+01:00</time>
      </trkpt>
      <trkpt lat="45.0534" lon="4.60481">
        <ele>811</ele>
        <time>2020-10-28T14:47:44+01:00</time>
      </trkpt>
      <trkpt lat="45.05319" lon="4.60496">
        <ele>807</ele>
        <time>2020-10-28T14:47:44+01:00</time>
      </trkpt>
      <trkpt lat="45.05314" lon="4.60537">
        <ele>797</ele>
        <time>2020-10-28T14:49:52+01:00</time>
      </trkpt>
      <trkpt lat="45.0529" lon="4.60513">
        <ele>800</ele>
        <time>2020-10-28T14:49:52+01:00</time>
      </trkpt>
      <trkpt lat="45.05268" lon="4.60516">
        <ele>796</ele>
        <time>2020-10-28T14:49:52+01:00</time>
      </trkpt>
      <trkpt lat="45.05248" lon="4.60492">
        <ele>800</ele>
        <time>2020-10-28T14:52:00+01:00</time>
      </trkpt>
      <trkpt lat="45.05228" lon="4.60476">
        <ele>800</ele>
        <time>2020-10-28T14:52:00+01:00</time>
      </trkpt>
      <trkpt lat="45.05215" lon="4.60449">
        <ele>805</ele>
        <time>2020-10-28T14:52:00+01:00</time>
      </trkpt>
      <trkpt lat="45.05192" lon="4.60435">
        <ele>804</ele>
        <time>2020-10-28T14:52:00+01:00</time>
      </trkpt>
      <trkpt lat="45.0517" lon="4.6043">
        <ele>801</ele>
        <time>2020-10-28T14:52:00+01:00</time>
      </trkpt>
      <trkpt lat="45.05149" lon="4.60406">
        <ele>808</ele>
        <time>2020-10-28T14:54:08+01:00</time>
      </trkpt>
      <trkpt lat="45.05131" lon="4.60386">
        <ele>814</ele>
        <time>2020-10-28T14:54:08+01:00</time>
      </trkpt>
      <trkpt lat="45.05109" lon="4.6039">
        <ele>814</ele>
        <time>2020-10-28T14:54:08+01:00</time>
      </trkpt>
      <trkpt lat="45.05088" lon="4.60406">
        <ele>810</ele>
        <time>2020-10-28T14:54:08+01:00</time>
      </trkpt>
      <trkpt lat="45.05065" lon="4.60407">
        <ele>812</ele>
        <time>2020-10-28T14:54:08+01:00</time>
      </trkpt>
      <trkpt lat="45.05053" lon="4.60435">
        <ele>807</ele>
        <time>2020-10-28T14:56:16+01:00</time>
      </trkpt>
      <trkpt lat="45.0503" lon="4.6045">
        <ele>808</ele>
        <time>2020-10-28T14:56:16+01:00</time>
      </trkpt>
      <trkpt lat="45.0501" lon="4.60466">
        <ele>809</ele>
        <time>2020-10-28T14:56:16+01:00</time>
      </trkpt>
      <trkpt lat="45.04988" lon="4.60477">
        <ele>810</ele>
        <time>2020-10-28T14:56:16+01:00</time>
      </trkpt>
      <trkpt lat="45.04965" lon="4.6048">
        <ele>811</ele>
        <time>2020-10-28T14:56:16+01:00</time>
      </trkpt>
      <trkpt lat="45.04943" lon="4.60493">
        <ele>813</ele>
        <time>2020-10-28T14:58:24+01:00</time>
      </trkpt>
      <trkpt lat="45.04937" lon="4.60524">
        <ele>811</ele>
        <time>2020-10-28T14:58:24+01:00</time>
      </trkpt>
      <trkpt lat="45.04925" lon="4.60552">
        <ele>811</ele>
        <time>2020-10-28T14:58:24+01:00</time>
      </trkpt>
      <trkpt lat="45.04925" lon="4.60587">
        <ele>808</ele>
        <time>2020-10-28T15:00:32+01:00</time>
      </trkpt>
      <trkpt lat="45.04918" lon="4.60621">
        <ele>806</ele>
        <time>2020-10-28T15:00:32+01:00</time>
      </trkpt>
      <trkpt lat="45.04906" lon="4.60649">
        <ele>807</ele>
        <time>2020-10-28T15:00:32+01:00</time>
      </trkpt>
      <trkpt lat="45.04907" lon="4.60682">
        <ele>803</ele>
        <time>2020-10-28T15:00:32+01:00</time>
      </trkpt>
      <trkpt lat="45.04903" lon="4.60714">
        <ele>801</ele>
        <time>2020-10-28T15:00:32+01:00</time>
      </trkpt>
      <trkpt lat="45.04898" lon="4.60746">
        <ele>800</ele>
        <time>2020-10-28T15:00:32+01:00</time>
      </trkpt>
      <trkpt lat="45.04895" lon="4.6078">
        <ele>800</ele>
        <time>2020-10-28T15:00:32+01:00</time>
      </trkpt>
      <trkpt lat="45.04897" lon="4.60812">
        <ele>798</ele>
        <time>2020-10-28T15:02:40+01:00</time>
      </trkpt>
      <trkpt lat="45.04901" lon="4.60844">
        <ele>797</ele>
        <time>2020-10-28T15:02:40+01:00</time>
      </trkpt>
      <trkpt lat="45.04917" lon="4.60869">
        <ele>793</ele>
        <time>2020-10-28T15:02:40+01:00</time>
      </trkpt>
      <trkpt lat="45.04939" lon="4.60877">
        <ele>785</ele>
        <time>2020-10-28T15:02:40+01:00</time>
      </trkpt>
      <trkpt lat="45.04941" lon="4.6091">
        <ele>786</ele>
        <time>2020-10-28T15:02:40+01:00</time>
      </trkpt>
      <trkpt lat="45.04952" lon="4.60882">
        <ele>781</ele>
        <time>2020-10-28T15:04:48+01:00</time>
      </trkpt>
      <trkpt lat="45.04963" lon="4.60853">
        <ele>776</ele>
        <time>2020-10-28T15:04:48+01:00</time>
      </trkpt>
      <trkpt lat="45.04974" lon="4.60825">
        <ele>771</ele>
        <time>2020-10-28T15:04:48+01:00</time>
      </trkpt>
      <trkpt lat="45.04967" lon="4.60791">
        <ele>773</ele>
        <time>2020-10-28T15:04:48+01:00</time>
      </trkpt>
      <trkpt lat="45.0498" lon="4.60818">
        <ele>769</ele>
        <time>2020-10-28T15:06:56+01:00</time>
      </trkpt>
      <trkpt lat="45.05004" lon="4.60818">
        <ele>761</ele>
        <time>2020-10-28T15:09:04+01:00</time>
      </trkpt>
      <trkpt lat="45.0501" lon="4.60787">
        <ele>758</ele>
        <time>2020-10-28T15:09:04+01:00</time>
      </trkpt>
      <trkpt lat="45.05016" lon="4.60755">
        <ele>757</ele>
        <time>2020-10-28T15:09:04+01:00</time>
      </trkpt>
      <trkpt lat="45.05032" lon="4.60731">
        <ele>754</ele>
        <time>2020-10-28T15:09:04+01:00</time>
      </trkpt>
      <trkpt lat="45.05011" lon="4.60745">
        <ele>758</ele>
        <time>2020-10-28T15:11:12+01:00</time>
      </trkpt>
      <trkpt lat="45.05023" lon="4.60774">
        <ele>755</ele>
        <time>2020-10-28T15:11:12+01:00</time>
      </trkpt>
      <trkpt lat="45.05006" lon="4.60797">
        <ele>760</ele>
        <time>2020-10-28T15:13:20+01:00</time>
      </trkpt>
      <trkpt lat="45.04985" lon="4.60809">
        <ele>767</ele>
        <time>2020-10-28T15:13:20+01:00</time>
      </trkpt>
      <trkpt lat="45.04972" lon="4.60783">
        <ele>771</ele>
        <time>2020-10-28T15:13:20+01:00</time>
      </trkpt>
      <trkpt lat="45.04954" lon="4.6081">
        <ele>778</ele>
        <time>2020-10-28T15:13:20+01:00</time>
      </trkpt>
      <trkpt lat="45.04968" lon="4.60838">
        <ele>773</ele>
        <time>2020-10-28T15:13:20+01:00</time>
      </trkpt>
      <trkpt lat="45.04958" lon="4.60866">
        <ele>778</ele>
        <time>2020-10-28T15:15:28+01:00</time>
      </trkpt>
      <trkpt lat="45.04955" lon="4.60898">
        <ele>781</ele>
        <time>2020-10-28T15:15:28+01:00</time>
      </trkpt>
      <trkpt lat="45.04961" lon="4.60942">
        <ele>781</ele>
        <time>2020-10-28T15:15:28+01:00</time>
      </trkpt>
      <trkpt lat="45.04971" lon="4.60975">
        <ele>781</ele>
        <time>2020-10-28T15:15:28+01:00</time>
      </trkpt>
      <trkpt lat="45.04984" lon="4.61002">
        <ele>779</ele>
        <time>2020-10-28T15:15:28+01:00</time>
      </trkpt>
      <trkpt lat="45.04989" lon="4.61034">
        <ele>780</ele>
        <time>2020-10-28T15:15:28+01:00</time>
      </trkpt>
      <trkpt lat="45.05002" lon="4.61069">
        <ele>777</ele>
        <time>2020-10-28T15:17:36+01:00</time>
      </trkpt>
      <trkpt lat="45.05007" lon="4.61101">
        <ele>776</ele>
        <time>2020-10-28T15:17:36+01:00</time>
      </trkpt>
      <trkpt lat="45.0502" lon="4.61127">
        <ele>771</ele>
        <time>2020-10-28T15:17:36+01:00</time>
      </trkpt>
      <trkpt lat="45.05029" lon="4.61158">
        <ele>768</ele>
        <time>2020-10-28T15:17:36+01:00</time>
      </trkpt>
      <trkpt lat="45.05035" lon="4.61189">
        <ele>767</ele>
        <time>2020-10-28T15:17:36+01:00</time>
      </trkpt>
      <trkpt lat="45.05044" lon="4.61218">
        <ele>765</ele>
        <time>2020-10-28T15:19:44+01:00</time>
      </trkpt>
      <trkpt lat="45.05049" lon="4.61249">
        <ele>763</ele>
        <time>2020-10-28T15:19:44+01:00</time>
      </trkpt>
      <trkpt lat="45.05056" lon="4.61281">
        <ele>761</ele>
        <time>2020-10-28T15:19:44+01:00</time>
      </trkpt>
      <trkpt lat="45.0505" lon="4.61313">
        <ele>763</ele>
        <time>2020-10-28T15:19:44+01:00</time>
      </trkpt>
      <trkpt lat="45.05054" lon="4.61349">
        <ele>761</ele>
        <time>2020-10-28T15:19:44+01:00</time>
      </trkpt>
      <trkpt lat="45.05052" lon="4.61385">
        <ele>760</ele>
        <time>2020-10-28T15:19:44+01:00</time>
      </trkpt>
      <trkpt lat="45.05049" lon="4.61421">
        <ele>757</ele>
        <time>2020-10-28T15:21:52+01:00</time>
      </trkpt>
      <trkpt lat="45.05048" lon="4.61455">
        <ele>754</ele>
        <time>2020-10-28T15:21:52+01:00</time>
      </trkpt>
      <trkpt lat="45.05047" lon="4.61486">
        <ele>750</ele>
        <time>2020-10-28T15:21:52+01:00</time>
      </trkpt>
      <trkpt lat="45.05048" lon="4.61519">
        <ele>747</ele>
        <time>2020-10-28T15:21:52+01:00</time>
      </trkpt>
      <trkpt lat="45.05038" lon="4.61548">
        <ele>744</ele>
        <time>2020-10-28T15:21:52+01:00</time>
      </trkpt>
      <trkpt lat="45.05024" lon="4.61575">
        <ele>740</ele>
        <time>2020-10-28T15:24:00+01:00</time>
      </trkpt>
      <trkpt lat="45.05013" lon="4.61603">
        <ele>739</ele>
        <time>2020-10-28T15:28:16+01:00</time>
      </trkpt>
      <trkpt lat="45.05001" lon="4.61631">
        <ele>740</ele>
        <time>2020-10-28T15:28:16+01:00</time>
      </trkpt>
      <trkpt lat="45.04983" lon="4.61653">
        <ele>738</ele>
        <time>2020-10-28T15:28:16+01:00</time>
      </trkpt>
      <trkpt lat="45.04974" lon="4.61694">
        <ele>741</ele>
        <time>2020-10-28T15:30:24+01:00</time>
      </trkpt>
      <trkpt lat="45.04988" lon="4.61668">
        <ele>739</ele>
        <time>2020-10-28T15:32:32+01:00</time>
      </trkpt>
      <trkpt lat="45.04965" lon="4.61671">
        <ele>736</ele>
        <time>2020-10-28T15:32:32+01:00</time>
      </trkpt>
      <trkpt lat="45.04938" lon="4.61685">
        <ele>734</ele>
        <time>2020-10-28T15:34:40+01:00</time>
      </trkpt>
      <trkpt lat="45.0492" lon="4.61704">
        <ele>736</ele>
        <time>2020-10-28T15:34:40+01:00</time>
      </trkpt>
      <trkpt lat="45.04906" lon="4.61731">
        <ele>739</ele>
        <time>2020-10-28T15:34:40+01:00</time>
      </trkpt>
      <trkpt lat="45.04885" lon="4.61743">
        <ele>738</ele>
        <time>2020-10-28T15:34:40+01:00</time>
      </trkpt>
      <trkpt lat="45.04862" lon="4.61756">
        <ele>736</ele>
        <time>2020-10-28T15:34:40+01:00</time>
      </trkpt>
      <trkpt lat="45.04839" lon="4.61763">
        <ele>732</ele>
        <time>2020-10-28T15:34:40+01:00</time>
      </trkpt>
      <trkpt lat="45.04816" lon="4.61775">
        <ele>730</ele>
        <time>2020-10-28T15:34:40+01:00</time>
      </trkpt>
      <trkpt lat="45.04793" lon="4.61774">
        <ele>726</ele>
        <time>2020-10-28T15:34:40+01:00</time>
      </trkpt>
      <trkpt lat="45.04772" lon="4.61787">
        <ele>724</ele>
        <time>2020-10-28T15:34:40+01:00</time>
      </trkpt>
      <trkpt lat="45.04775" lon="4.61819">
        <ele>725</ele>
        <time>2020-10-28T15:36:48+01:00</time>
      </trkpt>
      <trkpt lat="45.0479" lon="4.61845">
        <ele>728</ele>
        <time>2020-10-28T15:36:48+01:00</time>
      </trkpt>
      <trkpt lat="45.04794" lon="4.61878">
        <ele>726</ele>
        <time>2020-10-28T15:36:48+01:00</time>
      </trkpt>
      <trkpt lat="45.04801" lon="4.61908">
        <ele>725</ele>
        <time>2020-10-28T15:36:48+01:00</time>
      </trkpt>
      <trkpt lat="45.04798" lon="4.6194">
        <ele>722</ele>
        <time>2020-10-28T15:36:48+01:00</time>
      </trkpt>
      <trkpt lat="45.04804" lon="4.61971">
        <ele>722</ele>
        <time>2020-10-28T15:36:48+01:00</time>
      </trkpt>
      <trkpt lat="45.04803" lon="4.62003">
        <ele>720</ele>
        <time>2020-10-28T15:36:48+01:00</time>
      </trkpt>
      <trkpt lat="45.04798" lon="4.62039">
        <ele>721</ele>
        <time>2020-10-28T15:38:56+01:00</time>
      </trkpt>
      <trkpt lat="45.04781" lon="4.62059">
        <ele>716</ele>
        <time>2020-10-28T15:38:56+01:00</time>
      </trkpt>
      <trkpt lat="45.04766" lon="4.62083">
        <ele>713</ele>
        <time>2020-10-28T15:38:56+01:00</time>
      </trkpt>
      <trkpt lat="45.04747" lon="4.62104">
        <ele>710</ele>
        <time>2020-10-28T15:38:56+01:00</time>
      </trkpt>
      <trkpt lat="45.04729" lon="4.62131">
        <ele>709</ele>
        <time>2020-10-28T15:38:56+01:00</time>
      </trkpt>
      <trkpt lat="45.04704" lon="4.62143">
        <ele>704</ele>
        <time>2020-10-28T15:38:56+01:00</time>
      </trkpt>
      <trkpt lat="45.04697" lon="4.62175">
        <ele>705</ele>
        <time>2020-10-28T15:38:56+01:00</time>
      </trkpt>
      <trkpt lat="45.04684" lon="4.62209">
        <ele>702</ele>
        <time>2020-10-28T15:41:04+01:00</time>
      </trkpt>
      <trkpt lat="45.04672" lon="4.62237">
        <ele>699</ele>
        <time>2020-10-28T15:41:04+01:00</time>
      </trkpt>
      <trkpt lat="45.04665" lon="4.62268">
        <ele>695</ele>
        <time>2020-10-28T15:41:04+01:00</time>
      </trkpt>
      <trkpt lat="45.04665" lon="4.623">
        <ele>692</ele>
        <time>2020-10-28T15:41:04+01:00</time>
      </trkpt>
      <trkpt lat="45.04676" lon="4.6233">
        <ele>693</ele>
        <time>2020-10-28T15:43:12+01:00</time>
      </trkpt>
      <trkpt lat="45.0468" lon="4.62364">
        <ele>690</ele>
        <time>2020-10-28T15:43:12+01:00</time>
      </trkpt>
      <trkpt lat="45.04684" lon="4.62396">
        <ele>687</ele>
        <time>2020-10-28T15:43:12+01:00</time>
      </trkpt>
      <trkpt lat="45.0469" lon="4.62428">
        <ele>686</ele>
        <time>2020-10-28T15:43:12+01:00</time>
      </trkpt>
      <trkpt lat="45.04681" lon="4.62457">
        <ele>681</ele>
        <time>2020-10-28T15:43:12+01:00</time>
      </trkpt>
      <trkpt lat="45.04677" lon="4.62488">
        <ele>679</ele>
        <time>2020-10-28T15:43:12+01:00</time>
      </trkpt>
      <trkpt lat="45.04676" lon="4.62521">
        <ele>678</ele>
        <time>2020-10-28T15:43:12+01:00</time>
      </trkpt>
      <trkpt lat="45.0467" lon="4.62552">
        <ele>675</ele>
        <time>2020-10-28T15:45:20+01:00</time>
      </trkpt>
      <trkpt lat="45.04652" lon="4.62573">
        <ele>669</ele>
        <time>2020-10-28T15:45:20+01:00</time>
      </trkpt>
      <trkpt lat="45.0466" lon="4.62604">
        <ele>670</ele>
        <time>2020-10-28T15:45:20+01:00</time>
      </trkpt>
      <trkpt lat="45.04659" lon="4.62638">
        <ele>668</ele>
        <time>2020-10-28T15:45:20+01:00</time>
      </trkpt>
      <trkpt lat="45.04654" lon="4.62669">
        <ele>664</ele>
        <time>2020-10-28T15:45:20+01:00</time>
      </trkpt>
      <trkpt lat="45.04672" lon="4.62694">
        <ele>664</ele>
        <time>2020-10-28T15:45:20+01:00</time>
      </trkpt>
      <trkpt lat="45.04695" lon="4.627">
        <ele>665</ele>
        <time>2020-10-28T15:45:20+01:00</time>
      </trkpt>
      <trkpt lat="45.04718" lon="4.62708">
        <ele>666</ele>
        <time>2020-10-28T15:47:28+01:00</time>
      </trkpt>
      <trkpt lat="45.0474" lon="4.6272">
        <ele>666</ele>
        <time>2020-10-28T15:47:28+01:00</time>
      </trkpt>
      <trkpt lat="45.04757" lon="4.62745">
        <ele>664</ele>
        <time>2020-10-28T15:47:28+01:00</time>
      </trkpt>
      <trkpt lat="45.04768" lon="4.62775">
        <ele>662</ele>
        <time>2020-10-28T15:47:28+01:00</time>
      </trkpt>
      <trkpt lat="45.04778" lon="4.62804">
        <ele>661</ele>
        <time>2020-10-28T15:47:28+01:00</time>
      </trkpt>
      <trkpt lat="45.04782" lon="4.62835">
        <ele>657</ele>
        <time>2020-10-28T15:47:28+01:00</time>
      </trkpt>
      <trkpt lat="45.0479" lon="4.62869">
        <ele>656</ele>
        <time>2020-10-28T15:49:36+01:00</time>
      </trkpt>
      <trkpt lat="45.048" lon="4.62897">
        <ele>655</ele>
        <time>2020-10-28T15:49:36+01:00</time>
      </trkpt>
      <trkpt lat="45.04804" lon="4.62929">
        <ele>652</ele>
        <time>2020-10-28T15:49:36+01:00</time>
      </trkpt>
      <trkpt lat="45.04812" lon="4.62959">
        <ele>650</ele>
        <time>2020-10-28T15:49:36+01:00</time>
      </trkpt>
      <trkpt lat="45.04832" lon="4.62988">
        <ele>650</ele>
        <time>2020-10-28T15:51:44+01:00</time>
      </trkpt>
      <trkpt lat="45.04855" lon="4.62991">
        <ele>652</ele>
        <time>2020-10-28T15:51:44+01:00</time>
      </trkpt>
      <trkpt lat="45.04873" lon="4.63013">
        <ele>650</ele>
        <time>2020-10-28T15:51:44+01:00</time>
      </trkpt>
      <trkpt lat="45.04897" lon="4.63007">
        <ele>654</ele>
        <time>2020-10-28T15:51:44+01:00</time>
      </trkpt>
      <trkpt lat="45.04918" lon="4.63018">
        <ele>654</ele>
        <time>2020-10-28T15:53:52+01:00</time>
      </trkpt>
      <trkpt lat="45.04929" lon="4.62988">
        <ele>663</ele>
        <time>2020-10-28T15:53:52+01:00</time>
      </trkpt>
      <trkpt lat="45.04935" lon="4.62955">
        <ele>673</ele>
        <time>2020-10-28T15:53:52+01:00</time>
      </trkpt>
      <trkpt lat="45.0496" lon="4.62948">
        <ele>677</ele>
        <time>2020-10-28T15:53:52+01:00</time>
      </trkpt>
      <trkpt lat="45.04978" lon="4.62982">
        <ele>670</ele>
        <time>2020-10-28T15:53:52+01:00</time>
      </trkpt>
      <trkpt lat="45.04999" lon="4.62966">
        <ele>676</ele>
        <time>2020-10-28T15:53:52+01:00</time>
      </trkpt>
      <trkpt lat="45.05021" lon="4.62979">
        <ele>678</ele>
        <time>2020-10-28T15:53:52+01:00</time>
      </trkpt>
      <trkpt lat="45.05038" lon="4.63001">
        <ele>676</ele>
        <time>2020-10-28T15:56:00+01:00</time>
      </trkpt>
      <trkpt lat="45.05061" lon="4.63014">
        <ele>680</ele>
        <time>2020-10-28T15:56:00+01:00</time>
      </trkpt>
      <trkpt lat="45.05084" lon="4.63011">
        <ele>686</ele>
        <time>2020-10-28T15:56:00+01:00</time>
      </trkpt>
      <trkpt lat="45.05115" lon="4.63097">
        <ele>686</ele>
        <time>2020-10-28T16:00:16+01:00</time>
      </trkpt>
      <trkpt lat="45.05137" lon="4.63105">
        <ele>695</ele>
        <time>2020-10-28T16:00:16+01:00</time>
      </trkpt>
      <trkpt lat="45.0516" lon="4.63107">
        <ele>705</ele>
        <time>2020-10-28T16:00:16+01:00</time>
      </trkpt>
      <trkpt lat="45.05172" lon="4.63079">
        <ele>710</ele>
        <time>2020-10-28T16:02:24+01:00</time>
      </trkpt>
      <trkpt lat="45.05194" lon="4.63063">
        <ele>719</ele>
        <time>2020-10-28T16:02:24+01:00</time>
      </trkpt>
      <trkpt lat="45.05196" lon="4.63024">
        <ele>722</ele>
        <time>2020-10-28T16:02:24+01:00</time>
      </trkpt>
      <trkpt lat="45.0519" lon="4.62992">
        <ele>723</ele>
        <time>2020-10-28T16:02:24+01:00</time>
      </trkpt>
      <trkpt lat="45.05211" lon="4.63008">
        <ele>727</ele>
        <time>2020-10-28T16:02:24+01:00</time>
      </trkpt>
      <trkpt lat="45.0519" lon="4.63022">
        <ele>720</ele>
        <time>2020-10-28T16:04:32+01:00</time>
      </trkpt>
      <trkpt lat="45.05208" lon="4.63045">
        <ele>725</ele>
        <time>2020-10-28T16:04:32+01:00</time>
      </trkpt>
      <trkpt lat="45.05198" lon="4.63074">
        <ele>720</ele>
        <time>2020-10-28T16:04:32+01:00</time>
      </trkpt>
      <trkpt lat="45.0522" lon="4.63068">
        <ele>730</ele>
        <time>2020-10-28T16:04:32+01:00</time>
      </trkpt>
      <trkpt lat="45.05243" lon="4.6306">
        <ele>738</ele>
        <time>2020-10-28T16:04:32+01:00</time>
      </trkpt>
      <trkpt lat="45.05265" lon="4.63072">
        <ele>744</ele>
        <time>2020-10-28T16:04:32+01:00</time>
      </trkpt>
      <trkpt lat="45.0526" lon="4.6304">
        <ele>742</ele>
        <time>2020-10-28T16:04:32+01:00</time>
      </trkpt>
      <trkpt lat="45.05284" lon="4.63035">
        <ele>744</ele>
        <time>2020-10-28T16:04:32+01:00</time>
      </trkpt>
      <trkpt lat="45.05262" lon="4.6302">
        <ele>741</ele>
        <time>2020-10-28T16:06:40+01:00</time>
      </trkpt>
      <trkpt lat="45.05242" lon="4.63006">
        <ele>737</ele>
        <time>2020-10-28T16:06:40+01:00</time>
      </trkpt>
      <trkpt lat="45.05262" lon="4.6299">
        <ele>740</ele>
        <time>2020-10-28T16:08:48+01:00</time>
      </trkpt>
      <trkpt lat="45.05285" lon="4.62989">
        <ele>741</ele>
        <time>2020-10-28T16:08:48+01:00</time>
      </trkpt>
      <trkpt lat="45.05284" lon="4.63022">
        <ele>743</ele>
        <time>2020-10-28T16:10:56+01:00</time>
      </trkpt>
      <trkpt lat="45.05303" lon="4.63004">
        <ele>743</ele>
        <time>2020-10-28T16:10:56+01:00</time>
      </trkpt>
      <trkpt lat="45.05325" lon="4.63008">
        <ele>745</ele>
        <time>2020-10-28T16:10:56+01:00</time>
      </trkpt>
      <trkpt lat="45.05339" lon="4.62982">
        <ele>742</ele>
        <time>2020-10-28T16:15:12+01:00</time>
      </trkpt>
      <trkpt lat="45.05361" lon="4.62969">
        <ele>736</ele>
        <time>2020-10-28T16:15:12+01:00</time>
      </trkpt>
      <trkpt lat="45.05376" lon="4.62993">
        <ele>734</ele>
        <time>2020-10-28T16:15:12+01:00</time>
      </trkpt>
      <trkpt lat="45.05397" lon="4.63011">
        <ele>731</ele>
        <time>2020-10-28T16:15:12+01:00</time>
      </trkpt>
      <trkpt lat="45.05418" lon="4.63027">
        <ele>729</ele>
        <time>2020-10-28T16:17:20+01:00</time>
      </trkpt>
      <trkpt lat="45.05437" lon="4.63044">
        <ele>725</ele>
        <time>2020-10-28T16:17:20+01:00</time>
      </trkpt>
      <trkpt lat="45.05459" lon="4.63056">
        <ele>719</ele>
        <time>2020-10-28T16:17:20+01:00</time>
      </trkpt>
      <trkpt lat="45.0547" lon="4.63084">
        <ele>721</ele>
        <time>2020-10-28T16:17:20+01:00</time>
      </trkpt>
      <trkpt lat="45.05491" lon="4.63098">
        <ele>717</ele>
        <time>2020-10-28T16:17:20+01:00</time>
      </trkpt>
      <trkpt lat="45.05505" lon="4.63124">
        <ele>719</ele>
        <time>2020-10-28T16:19:28+01:00</time>
      </trkpt>
      <trkpt lat="45.05526" lon="4.63138">
        <ele>717</ele>
        <time>2020-10-28T16:19:28+01:00</time>
      </trkpt>
      <trkpt lat="45.05548" lon="4.63151">
        <ele>714</ele>
        <time>2020-10-28T16:19:28+01:00</time>
      </trkpt>
      <trkpt lat="45.0557" lon="4.63159">
        <ele>710</ele>
        <time>2020-10-28T16:19:28+01:00</time>
      </trkpt>
      <trkpt lat="45.0559" lon="4.63176">
        <ele>709</ele>
        <time>2020-10-28T16:19:28+01:00</time>
      </trkpt>
      <trkpt lat="45.05605" lon="4.632">
        <ele>713</ele>
        <time>2020-10-28T16:21:36+01:00</time>
      </trkpt>
      <trkpt lat="45.05624" lon="4.63218">
        <ele>713</ele>
        <time>2020-10-28T16:21:36+01:00</time>
      </trkpt>
      <trkpt lat="45.05646" lon="4.63231">
        <ele>712</ele>
        <time>2020-10-28T16:21:36+01:00</time>
      </trkpt>
      <trkpt lat="45.05665" lon="4.63247">
        <ele>711</ele>
        <time>2020-10-28T16:21:36+01:00</time>
      </trkpt>
      <trkpt lat="45.05686" lon="4.63261">
        <ele>707</ele>
        <time>2020-10-28T16:21:36+01:00</time>
      </trkpt>
      <trkpt lat="45.05706" lon="4.63276">
        <ele>704</ele>
        <time>2020-10-28T16:23:44+01:00</time>
      </trkpt>
      <trkpt lat="45.05723" lon="4.63298">
        <ele>703</ele>
        <time>2020-10-28T16:23:44+01:00</time>
      </trkpt>
      <trkpt lat="45.05743" lon="4.63317">
        <ele>700</ele>
        <time>2020-10-28T16:23:44+01:00</time>
      </trkpt>
      <trkpt lat="45.05761" lon="4.6334">
        <ele>698</ele>
        <time>2020-10-28T16:23:44+01:00</time>
      </trkpt>
      <trkpt lat="45.05776" lon="4.63365">
        <ele>697</ele>
        <time>2020-10-28T16:23:44+01:00</time>
      </trkpt>
      <trkpt lat="45.05789" lon="4.63391">
        <ele>696</ele>
        <time>2020-10-28T16:23:44+01:00</time>
      </trkpt>
      <trkpt lat="45.05807" lon="4.63413">
        <ele>692</ele>
        <time>2020-10-28T16:25:52+01:00</time>
      </trkpt>
      <trkpt lat="45.05823" lon="4.63435">
        <ele>688</ele>
        <time>2020-10-28T16:25:52+01:00</time>
      </trkpt>
      <trkpt lat="45.05831" lon="4.63466">
        <ele>688</ele>
        <time>2020-10-28T16:25:52+01:00</time>
      </trkpt>
      <trkpt lat="45.05829" lon="4.63498">
        <ele>694</ele>
        <time>2020-10-28T16:25:52+01:00</time>
      </trkpt>
      <trkpt lat="45.05834" lon="4.63531">
        <ele>694</ele>
        <time>2020-10-28T16:25:52+01:00</time>
      </trkpt>
      <trkpt lat="45.0585" lon="4.63554">
        <ele>688</ele>
        <time>2020-10-28T16:25:52+01:00</time>
      </trkpt>
      <trkpt lat="45.05853" lon="4.63587">
        <ele>689</ele>
        <time>2020-10-28T16:28:00+01:00</time>
      </trkpt>
      <trkpt lat="45.05866" lon="4.63614">
        <ele>683</ele>
        <time>2020-10-28T16:28:00+01:00</time>
      </trkpt>
      <trkpt lat="45.05877" lon="4.63643">
        <ele>678</ele>
        <time>2020-10-28T16:28:00+01:00</time>
      </trkpt>
      <trkpt lat="45.05882" lon="4.63676">
        <ele>676</ele>
        <time>2020-10-28T16:28:00+01:00</time>
      </trkpt>
      <trkpt lat="45.059" lon="4.63699">
        <ele>668</ele>
        <time>2020-10-28T16:30:08+01:00</time>
      </trkpt>
      <trkpt lat="45.05907" lon="4.6373">
        <ele>665</ele>
        <time>2020-10-28T16:30:08+01:00</time>
      </trkpt>
      <trkpt lat="45.05917" lon="4.63761">
        <ele>662</ele>
        <time>2020-10-28T16:30:08+01:00</time>
      </trkpt>
      <trkpt lat="45.05932" lon="4.63785">
        <ele>658</ele>
        <time>2020-10-28T16:30:08+01:00</time>
      </trkpt>
      <trkpt lat="45.05955" lon="4.6379">
        <ele>654</ele>
        <time>2020-10-28T16:30:08+01:00</time>
      </trkpt>
      <trkpt lat="45.05977" lon="4.63798">
        <ele>650</ele>
        <time>2020-10-28T16:32:16+01:00</time>
      </trkpt>
      <trkpt lat="45.05977" lon="4.6383">
        <ele>649</ele>
        <time>2020-10-28T16:32:16+01:00</time>
      </trkpt>
      <trkpt lat="45.05972" lon="4.63861">
        <ele>648</ele>
        <time>2020-10-28T16:32:16+01:00</time>
      </trkpt>
      <trkpt lat="45.05976" lon="4.63894">
        <ele>646</ele>
        <time>2020-10-28T16:32:16+01:00</time>
      </trkpt>
      <trkpt lat="45.05978" lon="4.63926">
        <ele>643</ele>
        <time>2020-10-28T16:32:16+01:00</time>
      </trkpt>
      <trkpt lat="45.05973" lon="4.63957">
        <ele>642</ele>
        <time>2020-10-28T16:32:16+01:00</time>
      </trkpt>
      <trkpt lat="45.05967" lon="4.63988">
        <ele>639</ele>
        <time>2020-10-28T16:34:24+01:00</time>
      </trkpt>
      <trkpt lat="45.05953" lon="4.64015">
        <ele>637</ele>
        <time>2020-10-28T16:34:24+01:00</time>
      </trkpt>
      <trkpt lat="45.05943" lon="4.64045">
        <ele>632</ele>
        <time>2020-10-28T16:34:24+01:00</time>
      </trkpt>
      <trkpt lat="45.05926" lon="4.64021">
        <ele>637</ele>
        <time>2020-10-28T16:34:24+01:00</time>
      </trkpt>
      <trkpt lat="45.05947" lon="4.64007">
        <ele>639</ele>
        <time>2020-10-28T16:36:32+01:00</time>
      </trkpt>
      <trkpt lat="45.05961" lon="4.63982">
        <ele>641</ele>
        <time>2020-10-28T16:36:32+01:00</time>
      </trkpt>
      <trkpt lat="45.05972" lon="4.63952">
        <ele>642</ele>
        <time>2020-10-28T16:36:32+01:00</time>
      </trkpt>
      <trkpt lat="45.05975" lon="4.6392">
        <ele>645</ele>
        <time>2020-10-28T16:36:32+01:00</time>
      </trkpt>
      <trkpt lat="45.05979" lon="4.63888">
        <ele>646</ele>
        <time>2020-10-28T16:36:32+01:00</time>
      </trkpt>
      <trkpt lat="45.05974" lon="4.63856">
        <ele>648</ele>
        <time>2020-10-28T16:38:40+01:00</time>
      </trkpt>
      <trkpt lat="45.05977" lon="4.63823">
        <ele>649</ele>
        <time>2020-10-28T16:38:40+01:00</time>
      </trkpt>
      <trkpt lat="45.05978" lon="4.6379">
        <ele>650</ele>
        <time>2020-10-28T16:38:40+01:00</time>
      </trkpt>
      <trkpt lat="45.05979" lon="4.63758">
        <ele>650</ele>
        <time>2020-10-28T16:38:40+01:00</time>
      </trkpt>
      <trkpt lat="45.05976" lon="4.63725">
        <ele>648</ele>
        <time>2020-10-28T16:38:40+01:00</time>
      </trkpt>
      <trkpt lat="45.05966" lon="4.63696">
        <ele>649</ele>
        <time>2020-10-28T16:40:48+01:00</time>
      </trkpt>
      <trkpt lat="45.05965" lon="4.63664">
        <ele>647</ele>
        <time>2020-10-28T16:40:48+01:00</time>
      </trkpt>
      <trkpt lat="45.05966" lon="4.63631">
        <ele>644</ele>
        <time>2020-10-28T16:40:48+01:00</time>
      </trkpt>
      <trkpt lat="45.05967" lon="4.63598">
        <ele>641</ele>
        <time>2020-10-28T16:40:48+01:00</time>
      </trkpt>
      <trkpt lat="45.05962" lon="4.63567">
        <ele>641</ele>
        <time>2020-10-28T16:40:48+01:00</time>
      </trkpt>
      <trkpt lat="45.0596" lon="4.63535">
        <ele>640</ele>
        <time>2020-10-28T16:40:48+01:00</time>
      </trkpt>
      <trkpt lat="45.05957" lon="4.63503">
        <ele>639</ele>
        <time>2020-10-28T16:42:56+01:00</time>
      </trkpt>
      <trkpt lat="45.05958" lon="4.63471">
        <ele>636</ele>
        <time>2020-10-28T16:42:56+01:00</time>
      </trkpt>
      <trkpt lat="45.05967" lon="4.6344">
        <ele>631</ele>
        <time>2020-10-28T16:42:56+01:00</time>
      </trkpt>
      <trkpt lat="45.05964" lon="4.63407">
        <ele>629</ele>
        <time>2020-10-28T16:42:56+01:00</time>
      </trkpt>
      <trkpt lat="45.05964" lon="4.63374">
        <ele>625</ele>
        <time>2020-10-28T16:42:56+01:00</time>
      </trkpt>
      <trkpt lat="45.05955" lon="4.63345">
        <ele>625</ele>
        <time>2020-10-28T16:45:04+01:00</time>
      </trkpt>
      <trkpt lat="45.05951" lon="4.63314">
        <ele>622</ele>
        <time>2020-10-28T16:45:04+01:00</time>
      </trkpt>
      <trkpt lat="45.05947" lon="4.63282">
        <ele>618</ele>
        <time>2020-10-28T16:45:04+01:00</time>
      </trkpt>
      <trkpt lat="45.0594" lon="4.63251">
        <ele>615</ele>
        <time>2020-10-28T16:45:04+01:00</time>
      </trkpt>
      <trkpt lat="45.05934" lon="4.6322">
        <ele>613</ele>
        <time>2020-10-28T16:45:04+01:00</time>
      </trkpt>
      <trkpt lat="45.05922" lon="4.63193">
        <ele>614</ele>
        <time>2020-10-28T16:45:04+01:00</time>
      </trkpt>
      <trkpt lat="45.05913" lon="4.63163">
        <ele>612</ele>
        <time>2020-10-28T16:47:12+01:00</time>
      </trkpt>
      <trkpt lat="45.059" lon="4.63136">
        <ele>612</ele>
        <time>2020-10-28T16:47:12+01:00</time>
      </trkpt>
      <trkpt lat="45.05887" lon="4.63108">
        <ele>611</ele>
        <time>2020-10-28T16:47:12+01:00</time>
      </trkpt>
      <trkpt lat="45.05878" lon="4.63078">
        <ele>609</ele>
        <time>2020-10-28T16:47:12+01:00</time>
      </trkpt>
      <trkpt lat="45.05865" lon="4.63049">
        <ele>609</ele>
        <time>2020-10-28T16:47:12+01:00</time>
      </trkpt>
      <trkpt lat="45.05857" lon="4.63019">
        <ele>607</ele>
        <time>2020-10-28T16:47:12+01:00</time>
      </trkpt>
      <trkpt lat="45.05842" lon="4.62991">
        <ele>607</ele>
        <time>2020-10-28T16:49:20+01:00</time>
      </trkpt>
      <trkpt lat="45.05826" lon="4.62968">
        <ele>606</ele>
        <time>2020-10-28T16:49:20+01:00</time>
      </trkpt>
      <trkpt lat="45.05807" lon="4.62951">
        <ele>605</ele>
        <time>2020-10-28T16:49:20+01:00</time>
      </trkpt>
      <trkpt lat="45.05791" lon="4.62926">
        <ele>601</ele>
        <time>2020-10-28T16:49:20+01:00</time>
      </trkpt>
      <trkpt lat="45.05783" lon="4.62896">
        <ele>595</ele>
        <time>2020-10-28T16:49:20+01:00</time>
      </trkpt>
      <trkpt lat="45.0576" lon="4.62898">
        <ele>599</ele>
        <time>2020-10-28T16:49:20+01:00</time>
      </trkpt>
      <trkpt lat="45.05737" lon="4.62894">
        <ele>601</ele>
        <time>2020-10-28T16:51:28+01:00</time>
      </trkpt>
      <trkpt lat="45.05714" lon="4.62894">
        <ele>605</ele>
        <time>2020-10-28T16:51:28+01:00</time>
      </trkpt>
      <trkpt lat="45.057" lon="4.62867">
        <ele>603</ele>
        <time>2020-10-28T16:51:28+01:00</time>
      </trkpt>
      <trkpt lat="45.0569" lon="4.62838">
        <ele>600</ele>
        <time>2020-10-28T16:51:28+01:00</time>
      </trkpt>
      <trkpt lat="45.05684" lon="4.62806">
        <ele>597</ele>
        <time>2020-10-28T16:51:28+01:00</time>
      </trkpt>
      <trkpt lat="45.05691" lon="4.62775">
        <ele>591</ele>
        <time>2020-10-28T16:53:36+01:00</time>
      </trkpt>
      <trkpt lat="45.05699" lon="4.62745">
        <ele>585</ele>
        <time>2020-10-28T16:53:36+01:00</time>
      </trkpt>
      <trkpt lat="45.05691" lon="4.62714">
        <ele>583</ele>
        <time>2020-10-28T16:53:36+01:00</time>
      </trkpt>
      <trkpt lat="45.05685" lon="4.62683">
        <ele>579</ele>
        <time>2020-10-28T16:53:36+01:00</time>
      </trkpt>
      <trkpt lat="45.05677" lon="4.62653">
        <ele>577</ele>
        <time>2020-10-28T16:55:44+01:00</time>
      </trkpt>
      <trkpt lat="45.05674" lon="4.6262">
        <ele>575</ele>
        <time>2020-10-28T16:55:44+01:00</time>
      </trkpt>
      <trkpt lat="45.05681" lon="4.6259">
        <ele>571</ele>
        <time>2020-10-28T16:55:44+01:00</time>
      </trkpt>
      <trkpt lat="45.057" lon="4.62569">
        <ele>566</ele>
        <time>2020-10-28T16:57:52+01:00</time>
      </trkpt>
      <trkpt lat="45.05718" lon="4.62589">
        <ele>563</ele>
        <time>2020-10-28T16:57:52+01:00</time>
      </trkpt>
    </trkseg>
  </trk>
</gpx>